Simultaneous Nadir Overpasses (SNOs) Predictions

Prediction of SNOs between GOES-16 and LANDSAT-8 Satellite Orbit:

Table of predicted SNOs for the next 14.0 days since TLE Epoch: 8/26/2023
Index Date Time (GOES-16) GOES-16 Lat,Lon LANDSAT-8 Lat,Lon Distance(km) Time Diff (sec)
1 08/27/2023 03:12:18 0.03, -75.21 0.16, -74.69 59.10 80
2 08/29/2023 03:00:06 0.04, -75.21 0.75, -71.73 396.16 80
3 08/29/2023 15:18:42 -0.04, -75.22 0.32, -76.89 189.04 80
4 08/31/2023 15:09:11 -0.04, -75.24 -0.35, -73.93 149.30 80
5 09/01/2023 03:30:34 0.04, -75.24 -0.76, -79.12 441.12 80
6 09/02/2023 14:56:59 -0.04, -75.26 -0.97, -70.97 488.56 80
7 09/03/2023 03:18:23 0.04, -75.26 -0.13, -76.16 101.62 80
8 09/05/2023 03:03:31 0.04, -75.29 0.51, -73.20 238.54 80
9 09/05/2023 15:24:45 -0.04, -75.31 0.61, -78.35 346.06 80
10 09/07/2023 15:15:13 -0.03, -75.34 -0.05, -75.39 5.80 80
